KC3ROS Weather Reports


Display with metric or nautical units.
time (UTC)temp
F
wind
direction
speed
MPH
gust
MPH
rain 1hr
in
rain 24hr
in
rain mn
in
humidity
%
barometer
mb
20240522152553 78 243 0.0 8.0 0.00 0.00 0.00 63 1012.8
20240522152053 79 221 3.0 7.0 0.00 0.00 0.00 63 1012.7
20240522151552 79 221 2.0 7.0 0.00 0.00 0.00 64 1012.8
20240522151051 79 255 5.0 7.0 0.00 0.00 0.00 64 1012.6
20240522150549 79 228 5.0 8.0 0.00 0.00 0.00 63 1012.6
20240522150049 79 226 5.0 13.0 0.00 0.00 0.00 64 1012.5
20240522145549 80 220 6.0 13.0 0.00 0.00 0.00 63 1012.5
20240522145047 79 285 4.0 9.0 0.00 0.00 0.00 63 1012.5
20240522144547 78 252 0.0 8.0 0.00 0.00 0.00 64 1012.5
20240522144046 78 235 4.0 8.0 0.00 0.00 0.00 64 1012.6
20240522143544 80 231 5.0 7.0 0.00 0.00 0.00 61 1012.4
20240522143042 78 232 3.0 6.0 0.00 0.00 0.00 65 1012.6
20240522142541 78 295 0.0 8.0 0.00 0.00 0.00 67 1012.8
20240522142039 78 249 4.0 9.0 0.00 0.00 0.00 68 1012.6
20240522141538 76 237 2.0 6.0 0.00 0.00 0.00 67 1012.9
20240522141037 77 218 2.0 10.0 0.00 0.00 0.00 70 1012.8
20240522140535 77 244 4.0 9.0 0.00 0.00 0.00 66 1012.6
20240522140035 77 273 2.0 7.0 0.00 0.00 0.00 68 1012.7
20240522135534 77 255 5.0 9.0 0.00 0.00 0.00 67 1012.6
20240522135035 77 207 1.0 3.0 0.00 0.00 0.00 70 1012.5
20240522134534 76 278 1.0 5.0 0.00 0.00 0.00 68 1012.6
20240522134032 76 236 5.0 6.0 0.00 0.00 0.00 70 1012.6
20240522133531 75 244 3.0 7.0 0.00 0.00 0.00 70 1012.7
20240522133030 75 304 1.0 7.0 0.00 0.00 0.00 69 1012.6
20240522132529 75 252 1.0 3.0 0.00 0.00 0.00 73 1012.8
20240522132027 75 259 2.0 5.0 0.00 0.00 0.00 71 1012.6
20240522131526 75 244 3.0 7.0 0.00 0.00 0.00 70 1012.7
20240522131026 74 242 3.0 5.0 0.00 0.00 0.00 71 1012.7
20240522130525 74 228 0.0 5.0 0.00 0.00 0.00 71 1012.7
20240522130024 73 237 1.0 3.0 0.00 0.00 0.00 72 1012.9
20240522125523 72 250 4.0 5.0 0.00 0.00 0.00 73 1012.8
20240522125022 72 242 4.0 6.0 0.00 0.00 0.00 74 1012.8
20240522124520 71 250 3.0 4.0 0.00 0.00 0.00 75 1012.7
20240522124019 72 264 3.0 11.0 0.00 0.00 0.00 76 1012.7
20240522123517 71 184 0.0 7.0 0.00 0.00 0.00 76 1012.7
20240522123017 71 191 2.0 7.0 0.00 0.00 0.00 75 1012.6
20240522122515 71 238 3.0 5.0 0.00 0.00 0.00 77 1012.5
20240522122015 71 253 0.0 3.0 0.00 0.00 0.00 76 1012.6
20240522121513 70 239 4.0 6.0 0.00 0.00 0.00 76 1012.7
20240522121013 70 205 0.0 6.0 0.00 0.00 0.00 76 1012.5
20240522120513 69 229 3.0 6.0 0.00 0.00 0.00 77 1012.5
20240522120012 69 164 0.0 8.0 0.00 0.00 0.00 77 1012.7
20240522115511 69 235 0.0 4.0 0.00 0.00 0.00 78 1012.7
20240522115010 69 234 2.0 5.0 0.00 0.00 0.00 77 1012.4
20240522114508 69 217 2.0 6.0 0.00 0.00 0.00 77 1012.5
20240522114008 69 240 2.0 5.0 0.00 0.00 0.00 77 1012.6
20240522113508 69 216 2.0 5.0 0.00 0.00 0.00 78 1012.4
20240522113008 68 308 0.0 4.0 0.00 0.00 0.00 78 1012.5
20240522112506 68 249 3.0 3.0 0.00 0.00 0.00 79 1012.4
20240522112005 68 268 2.0 5.0 0.00 0.00 0.00 77 1012.5
20240522111504 68 208 1.0 4.0 0.00 0.00 0.00 79 1012.4
20240522111003 68 213 2.0 4.0 0.00 0.00 0.00 78 1012.6
20240522110503 68 201 1.0 4.0 0.00 0.00 0.00 79 1012.6
20240522110002 68 190 0.0 4.0 0.00 0.00 0.00 79 1012.5
20240522105501 68 212 1.0 3.0 0.00 0.00 0.00 79 1012.5
20240522105000 68 207 2.0 5.0 0.00 0.00 0.00 78 1012.6
20240522104500 68 246 0.0 4.0 0.00 0.00 0.00 78 1012.7
20240522104000 68 244 1.0 4.0 0.00 0.00 0.00 78 1012.6
20240522103459 68 246 3.0 5.0 0.00 0.00 0.00 78 1012.6
20240522102957 68 203 0.0 3.0 0.00 0.00 0.00 79 1012.5
20240522102455 68 242 2.0 4.0 0.00 0.00 0.00 79 1012.8
20240522101954 68 239 1.0 4.0 0.00 0.00 0.00 78 1012.4
20240522101452 68 210 1.0 5.0 0.00 0.00 0.00 78 1012.4
20240522100952 68 135 0.0 3.0 0.00 0.00 0.00 78 1012.4
20240522100450 68 242 0.0 3.0 0.00 0.00 0.00 79 1012.2
20240522095949 68 244 0.0 3.0 0.00 0.00 0.00 78 1012.3
20240522095448 68 216 0.0 4.0 0.00 0.00 0.00 77 1012.2
20240522094947 68 233 3.0 3.0 0.00 0.00 0.00 77 1012.4
20240522094445 68 186 1.0 3.0 0.00 0.00 0.00 77 1012.4
20240522093943 68 242 1.0 3.0 0.00 0.00 0.00 77 1012.3
20240522093442 68 200 0.0 5.0 0.00 0.00 0.00 77 1012.2
20240522092940 68 216 2.0 4.0 0.00 0.00 0.00 77 1012.2
20240522092439 68 237 1.0 3.0 0.00 0.00 0.00 77 1012.3
20240522091938 68 205 0.0 2.0 0.00 0.00 0.00 76 1012.3
20240522091436 68 180 1.0 4.0 0.00 0.00 0.00 76 1012.2
20240522090936 68 191 1.0 4.0 0.00 0.00 0.00 76 1012.3
20240522090435 68 204 0.0 5.0 0.00 0.00 0.00 76 1012.2
20240522085934 68 231 2.0 4.0 0.00 0.00 0.00 76 1012.3
20240522085433 68 245 2.0 3.0 0.00 0.00 0.00 76 1012.3
20240522084932 68 217 2.0 3.0 0.00 0.00 0.00 76 1012.5
20240522084429 68 253 2.0 4.0 0.00 0.00 0.00 76 1012.4
20240522083928 69 230 2.0 3.0 0.00 0.00 0.00 75 1012.3
20240522083427 69 291 2.0 5.0 0.00 0.00 0.00 75 1012.3
20240522082926 69 232 3.0 4.0 0.00 0.00 0.00 75 1012.3
20240522082424 68 205 0.0 2.0 0.00 0.00 0.00 75 1012.2
20240522081923 68 221 2.0 3.0 0.00 0.00 0.00 75 1012.2
20240522081420 68 219 0.0 3.0 0.00 0.00 0.00 75 1012.4
20240522080920 69 211 1.0 5.0 0.00 0.00 0.00 75 1012.3
20240522080419 68 255 0.0 2.0 0.00 0.00 0.00 75 1012.3
20240522075917 68 208 1.0 3.0 0.00 0.00 0.00 75 1012.5
20240522075416 68 191 0.0 3.0 0.00 0.00 0.00 75 1012.4
20240522074916 69 217 0.0 3.0 0.00 0.00 0.00 74 1012.6
20240522074414 69 188 2.0 4.0 0.00 0.00 0.00 74 1012.5
20240522073913 69 228 2.0 3.0 0.00 0.00 0.00 74 1012.5
20240522073413 69 213 2.0 3.0 0.00 0.00 0.00 74 1012.4
20240522072911 69 256 2.0 4.0 0.00 0.00 0.00 73 1012.5
20240522072410 69 267 4.0 5.0 0.00 0.00 0.00 74 1012.3
20240522071909 69 228 2.0 3.0 0.00 0.00 0.00 74 1012.3
20240522071408 69 241 1.0 2.0 0.00 0.00 0.00 74 1012.4
20240522070907 69 225 0.0 3.0 0.00 0.00 0.00 74 1012.6
20240522070407 69 224 1.0 3.0 0.00 0.00 0.00 74 1012.8
20240522065905 69 268 2.0 3.0 0.00 0.00 0.00 74 1012.6
20240522065402 69 242 0.0 2.0 0.00 0.00 0.00 73 1012.4
20240522064901 69 211 0.0 2.0 0.00 0.00 0.00 73 1012.4
20240522064359 69 195 1.0 2.0 0.00 0.00 0.00 73 1012.5
20240522063859 69 189 1.0 3.0 0.00 0.00 0.00 73 1012.6
20240522063358 69 204 0.0 3.0 0.00 0.00 0.00 73 1012.3
20240522062856 69 217 0.0 2.0 0.00 0.00 0.00 72 1012.2
20240522062354 69 213 1.0 2.0 0.00 0.00 0.00 72 1012.3
20240522061853 69 189 1.0 3.0 0.00 0.00 0.00 71 1012.3
20240522061351 70 234 2.0 4.0 0.00 0.00 0.00 70 1012.1
20240522060850 70 241 1.0 2.0 0.00 0.00 0.00 69 1012.1
20240522060348 70 188 0.0 2.0 0.00 0.00 0.00 69 1012.2
20240522055847 70 246 1.0 3.0 0.00 0.00 0.00 69 1012.1
20240522055346 70 244 2.0 3.0 0.00 0.00 0.00 68 1012.1
20240522054845 70 266 1.0 3.0 0.00 0.00 0.00 68 1012.1
20240522054343 71 252 1.0 3.0 0.00 0.00 0.00 68 1012.0
20240522053843 71 269 0.0 3.0 0.00 0.00 0.00 67 1011.8
20240522053342 71 229 0.0 3.0 0.00 0.00 0.00 67 1012.1
20240522052841 71 267 0.0 4.0 0.00 0.00 0.00 66 1012.1
20240522052340 71 269 0.0 1.0 0.00 0.00 0.00 66 1012.0
20240522051839 71 252 0.0 2.0 0.00 0.00 0.00 66 1012.0
20240522051338 71 269 0.0 4.0 0.00 0.00 0.00 66 1012.2
20240522050837 71 266 2.0 3.0 0.00 0.00 0.00 66 1012.2
20240522050337 71 235 0.0 2.0 0.00 0.00 0.00 65 1012.0
20240522045836 71 247 1.0 3.0 0.00 0.00 0.00 65 1012.1
20240522045336 71 237 1.0 4.0 0.00 0.00 0.00 65 1012.2
20240522044834 72 252 1.0 2.0 0.00 0.00 0.00 65 1012.2
20240522044333 72 226 1.0 3.0 0.00 0.00 0.00 64 1012.3
20240522043833 72 243 1.0 3.0 0.00 0.00 0.00 65 1012.2
20240522043332 71 242 1.0 2.0 0.00 0.00 0.00 65 1012.4
20240522042830 72 236 1.0 3.0 0.00 0.00 0.00 65 1012.2
20240522042329 71 238 1.0 2.0 0.00 0.00 0.00 66 1012.1
20240522041827 72 250 1.0 3.0 0.00 0.00 0.00 66 1012.1
20240522041326 72 271 2.0 2.0 0.00 0.00 0.00 64 1012.1
20240522040825 72 239 2.0 3.0 0.00 0.00 0.00 64 1012.2
20240522040323 72 269 2.0 4.0 0.00 0.00 0.00 64 1012.2
20240522035821 72 235 0.0 3.0 0.00 0.00 0.00 65 1012.3
20240522035321 72 248 1.0 2.0 0.00 0.00 0.00 65 1012.1
20240522034819 72 235 2.0 4.0 0.00 0.00 0.00 64 1012.0
20240522034319 72 257 1.0 3.0 0.00 0.00 0.00 64 1012.1
20240522033817 72 244 1.0 3.0 0.00 0.00 0.00 65 1012.1
20240522033315 72 242 0.0 4.0 0.00 0.00 0.00 65 1012.2
20240522032811 72 255 0.0 3.0 0.00 0.00 0.00 65 1012.2
20240522032310 73 211 0.0 2.0 0.00 0.00 0.00 64 1012.0
20240522031811 73 231 1.0 3.0 0.00 0.00 0.00 64 1012.2
20240522031310 73 214 1.0 2.0 0.00 0.00 0.00 64 1012.0
20240522030809 73 220 1.0 2.0 0.00 0.00 0.00 64 1012.0
20240522030308 73 230 1.0 2.0 0.00 0.00 0.00 64 1012.2
20240522025808 73 207 1.0 3.0 0.00 0.00 0.00 64 1011.9
20240522025308 73 215 1.0 3.0 0.00 0.00 0.00 64 1012.2
20240522024806 73 255 0.0 3.0 0.00 0.00 0.00 63 1012.1
20240522024305 74 255 0.0 3.0 0.00 0.00 0.00 62 1012.1
20240522023803 74 222 1.0 3.0 0.00 0.00 0.00 62 1012.0
20240522023301 74 224 0.0 5.0 0.00 0.00 0.00 62 1012.2
20240522022800 74 211 1.0 3.0 0.00 0.00 0.00 61 1012.2
20240522022258 74 245 1.0 4.0 0.00 0.00 0.00 61 1012.0
20240522021757 74 220 1.0 3.0 0.00 0.00 0.00 61 1012.0
20240522021254 75 237 2.0 3.0 0.00 0.00 0.00 61 1012.2
20240522020754 75 246 1.0 3.0 0.00 0.00 0.00 60 1012.1
20240522020252 75 235 0.0 2.0 0.00 0.00 0.00 60 1012.2
20240522015750 75 263 0.0 2.0 0.00 0.00 0.00 60 1012.1
20240522015247 75 238 1.0 3.0 0.00 0.00 0.00 60 1011.9
20240522014747 75 255 1.0 3.0 0.00 0.00 0.00 59 1012.0
20240522014245 75 237 2.0 3.0 0.00 0.00 0.00 59 1012.0
20240522013744 75 240 1.0 2.0 0.00 0.00 0.00 59 1012.0
20240522013244 75 240 0.0 2.0 0.00 0.00 0.00 59 1011.8
20240522012742 75 240 0.0 2.0 0.00 0.00 0.00 59 1011.9
20240522012241 76 230 0.0 2.0 0.00 0.00 0.00 59 1011.9
20240522011740 76 257 1.0 2.0 0.00 0.00 0.00 58 1012.0
20240522011239 76 251 1.0 2.0 0.00 0.00 0.00 58 1011.8
20240522010737 76 247 1.0 2.0 0.00 0.00 0.00 58 1012.1
20240522010236 76 235 0.0 2.0 0.00 0.00 0.00 57 1011.9
20240522005735 77 237 1.0 2.0 0.00 0.00 0.00 57 1011.9
20240522005234 77 257 1.0 2.0 0.00 0.00 0.00 57 1012.0
20240522004732 77 244 1.0 2.0 0.00 0.00 0.00 57 1011.9
20240522004231 77 232 0.0 2.0 0.00 0.00 0.00 57 1012.0
20240522003731 77 275 0.0 2.0 0.00 0.00 0.00 56 1012.0
20240522003229 77 224 0.0 3.0 0.00 0.00 0.00 57 1012.1
20240522002729 78 221 1.0 3.0 0.00 0.00 0.00 56 1012.1
20240522002228 78 267 2.0 3.0 0.00 0.00 0.00 56 1012.1
20240522001728 78 224 1.0 3.0 0.00 0.00 0.00 56 1012.0
20240522001227 78 244 2.0 4.0 0.00 0.00 0.00 54 1012.1
20240522000725 78 245 2.0 3.0 0.00 0.00 0.00 55 1012.1
20240522000224 78 269 0.0 3.0 0.00 0.00 0.00 55 1012.0
20240521235722 79 248 0.0 2.0 0.00 0.00 0.00 55 1012.0
20240521235221 79 244 2.0 2.0 0.00 0.00 0.00 55 1012.2
20240521234719 79 222 1.0 2.0 0.00 0.00 0.00 54 1012.1
20240521234217 80 237 2.0 3.0 0.00 0.00 0.00 54 1012.2
20240521233717 80 252 0.0 3.0 0.00 0.00 0.00 53 1012.1
20240521233216 80 256 0.0 4.0 0.00 0.00 0.00 53 1012.0
20240521232714 80 225 2.0 3.0 0.00 0.00 0.00 52 1012.2
20240521232214 80 238 1.0 2.0 0.00 0.00 0.00 52 1012.1
20240521231713 81 247 1.0 3.0 0.00 0.00 0.00 50 1012.2
20240521231211 81 254 2.0 4.0 0.00 0.00 0.00 51 1012.1
20240521230702 82 245 3.0 3.0 0.00 0.00 0.00 49 1012.0
20240521230201 82 249 3.0 6.0 0.00 0.00 0.00 48 1012.2
20240521225659 83 262 0.0 2.0 0.00 0.00 0.00 48 1012.3
20240521225159 83 297 0.0 3.0 0.00 0.00 0.00 47 1012.4
20240521224646 83 230 2.0 4.0 0.00 0.00 0.00 46 1012.5
20240521224145 84 249 2.0 4.0 0.00 0.00 0.00 49 1012.4
20240521223644 84 245 2.0 4.0 0.00 0.00 0.00 45 1012.4
20240521223144 84 243 3.0 5.0 0.00 0.00 0.00 49 1012.4
20240521222643 85 248 5.0 6.0 0.00 0.00 0.00 44 1012.5
20240521222142 86 255 0.0 3.0 0.00 0.00 0.00 44 1012.4
20240521221641 86 228 3.0 6.0 0.00 0.00 0.00 45 1012.5
20240521221140 86 259 3.0 4.0 0.00 0.00 0.00 43 1012.5
20240521220638 86 237 3.0 5.0 0.00 0.00 0.00 44 1012.6
20240521220137 85 0 2.0 5.0 0.00 0.00 0.00 43 1012.6
20240521215635 86 238 3.0 4.0 0.00 0.00 0.00 43 1012.6
20240521215133 85 274 2.0 5.0 0.00 0.00 0.00 45 1012.8
20240521214631 85 255 2.0 4.0 0.00 0.00 0.00 46 1013.0
20240521214129 86 62 3.0 4.0 0.00 0.00 0.00 44 1012.8
20240521213629 86 273 3.0 4.0 0.00 0.00 0.00 45 1013.1
20240521213127 85 272 2.0 6.0 0.00 0.00 0.00 46 1013.1
20240521212626 83 302 2.0 6.0 0.00 0.00 0.00 46 1013.0
20240521212124 82 238 3.0 4.0 0.00 0.00 0.00 48 1012.9
20240521211623 86 239 2.0 4.0 0.00 0.00 0.00 46 1012.8
20240521211122 86 254 3.0 4.0 0.00 0.00 0.00 46 1013.0
20240521210621 84 235 3.0 4.0 0.00 0.00 0.00 48 1013.0
20240521210119 84 237 2.0 5.0 0.00 0.00 0.00 49 1012.9
20240521205618 82 208 1.0 5.0 0.00 0.00 0.00 49 1013.0
20240521205117 83 267 3.0 5.0 0.00 0.00 0.00 50 1013.0
20240521204615 81 238 3.0 5.0 0.00 0.00 0.00 53 1013.0
20240521204114 81 207 2.0 7.0 0.00 0.00 0.00 51 1013.2
20240521203614 83 344 0.0 5.0 0.00 0.00 0.00 50 1013.3
20240521203112 84 245 3.0 5.0 0.00 0.00 0.00 49 1013.1
20240521202611 85 232 4.0 9.0 0.00 0.00 0.00 47 1013.4
20240521202109 85 252 3.0 7.0 0.00 0.00 0.00 47 1013.3
20240521201609 85 281 2.0 6.0 0.00 0.00 0.00 46 1013.2
20240521201108 86 276 3.0 5.0 0.00 0.00 0.00 44 1013.4
20240521200608 82 231 2.0 6.0 0.00 0.00 0.00 50 1013.1
20240521200107 84 271 3.0 8.0 0.00 0.00 0.00 49 1013.2
20240521195605 84 265 3.0 6.0 0.00 0.00 0.00 49 1013.2
20240521195104 85 251 5.0 7.0 0.00 0.00 0.00 48 1013.1
20240521194603 84 260 5.0 9.0 0.00 0.00 0.00 48 1013.2
20240521194103 85 250 2.0 4.0 0.00 0.00 0.00 50 1013.0
20240521193601 84 257 5.0 7.0 0.00 0.00 0.00 47 1013.2
20240521193100 82 261 3.0 5.0 0.00 0.00 0.00 51 1013.1
20240521192558 82 295 1.0 4.0 0.00 0.00 0.00 52 1013.3
20240521192059 85 238 5.0 7.0 0.00 0.00 0.00 50 1013.1
20240521191556 83 257 3.0 6.0 0.00 0.00 0.00 49 1013.0
20240521191054 84 257 2.0 7.0 0.00 0.00 0.00 48 1013.0
20240521190552 83 66 0.0 7.0 0.00 0.00 0.00 52 1013.1
20240521190050 84 261 3.0 6.0 0.00 0.00 0.00 48 1012.8
20240521185550 81 348 0.0 3.0 0.00 0.00 0.00 52 1012.9
20240521185045 84 281 3.0 5.0 0.00 0.00 0.00 47 1013.0
20240521184543 84 276 2.0 3.0 0.00 0.00 0.00 51 1012.9
20240521184043 84 251 3.0 6.0 0.00 0.00 0.00 47 1013.0
20240521183542 83 259 1.0 5.0 0.00 0.00 0.00 51 1012.9
20240521183042 84 72 3.0 5.0 0.00 0.00 0.00 47 1013.0
20240521182543 84 117 2.0 7.0 0.00 0.00 0.00 49 1013.1
20240521182042 83 228 3.0 8.0 0.00 0.00 0.00 49 1013.3
20240521181541 83 250 3.0 5.0 0.00 0.00 0.00 48 1013.4
20240521181040 83 241 5.0 7.0 0.00 0.00 0.00 50 1013.6
20240521180540 82 349 1.0 4.0 0.00 0.00 0.00 50 1013.5
20240521180039 83 255 7.0 11.0 0.00 0.00 0.00 46 1013.6
20240521175537 82 316 0.0 7.0 0.00 0.00 0.00 51 1013.6
20240521175036 83 250 3.0 5.0 0.00 0.00 0.00 48 1013.4
20240521174535 82 223 4.0 5.0 0.00 0.00 0.00 48 1013.5
20240521174035 82 254 3.0 8.0 0.00 0.00 0.00 56 1013.7
20240521173533 82 161 1.0 5.0 0.00 0.00 0.00 53 1013.5
20240521173032 82 257 3.0 6.0 0.00 0.00 0.00 51 1013.5
20240521172530 81 275 2.0 8.0 0.00 0.00 0.00 53 1013.6
20240521172029 81 258 4.0 8.0 0.00 0.00 0.00 51 1013.4
20240521171527 82 234 4.0 5.0 0.00 0.00 0.00 51 1013.6
20240521171026 81 259 5.0 6.0 0.00 0.00 0.00 49 1013.6
20240521170524 81 290 7.0 9.0 0.00 0.00 0.00 53 1013.8
20240521170022 80 340 0.0 5.0 0.00 0.00 0.00 52 1013.7
20240521165521 81 226 5.0 6.0 0.00 0.00 0.00 58 1013.6
20240521165020 80 255 0.0 6.0 0.00 0.00 0.00 56 1013.9
20240521164518 79 258 3.0 7.0 0.00 0.00 0.00 54 1013.8
20240521164017 79 255 4.0 9.0 0.00 0.00 0.00 60 1013.9
20240521163516 80 256 4.0 8.0 0.00 0.00 0.00 57 1014.0
20240521163015 79 258 0.0 4.0 0.00 0.00 0.00 58 1014.0
20240521162514 79 130 2.0 5.0 0.00 0.00 0.00 60 1014.0
20240521162013 79 320 2.0 7.0 0.00 0.00 0.00 59 1014.2
20240521161511 79 241 3.0 4.0 0.00 0.00 0.00 61 1014.0
20240521161010 79 229 4.0 5.0 0.00 0.00 0.00 63 1014.4
20240521160510 78 283 0.0 4.0 0.00 0.00 0.00 65 1014.5
20240521160008 79 285 2.0 6.0 0.00 0.00 0.00 61 1014.5
20240521155507 79 269 4.0 7.0 0.00 0.00 0.00 62 1014.6
20240521155008 79 244 3.0 4.0 0.00 0.00 0.00 62 1014.5
20240521154506 78 258 3.0 3.0 0.00 0.00 0.00 65 1014.5
20240521154006 77 205 0.0 9.0 0.00 0.00 0.00 62 1014.8
20240521153504 78 264 3.0 9.0 0.00 0.00 0.00 63 1014.7
20240521153002 78 237 5.0 5.0 0.00 0.00 0.00 64 1014.6